Regional Weather Roundup
Issued by NWS Upton, NY

Current Version | Previous Version | Graphics & Text | Print | Product List | Glossary On
Versions: 1 2 3 4 5 6 7 8 9 10 11 12 13 14 15 16 17 18 19 20 21 22 23 24 25 26 27 28 29 30 31 32 33 34 35 36 37 38 39 40 41 42 43 44 45 46 47 48 49 50
000
ASUS41 KOKX 231908
RWROKX

REGIONAL WEATHER ROUNDUP
NATIONAL WEATHER SERVICE NEW YORK NY
300 PM EDT WED AUG 23 2017

NOTE: "FAIR" INDICATES FEW OR NO CLOUDS BELOW 12,000 FEET WITH NO
SIGNIFICANT WEATHER AND/OR OBSTRUCTIONS TO VISIBILITY.

NYZ071-072-176-178-NJZ106-104-232000-
NEW YORK CITY METRO AREA

CITY           SKY/WX    TMP DP  RH WIND       PRES   REMARKS
Central Park   MOSUNNY   79  52  38 MISG      29.86F
Bronx Bot Gard   N/A     81  52  36 NE6       29.86S
LaGuardia APRT PTSUNNY   81  54  39 NW8       29.82F
Kennedy INTL   CLOUDY    84  52  33 W10       29.83F
Breezy Point     N/A     79 N/A N/A W7          N/A
Newark/Liberty PTSUNNY   81  52  36 W15       29.83F
Teterboro      MOSUNNY   80  55  42 NW8       29.82F
$$

NYZ177-179-078>081-232000-
LONG ISLAND NEW YORK

CITY           SKY/WX    TMP DP  RH WIND       PRES   REMARKS
Jones Beach      N/A     79 N/A N/A NW9G15      N/A
Matinecock PT    N/A     77 N/A N/A W13         N/A
Farmingdale    CLOUDY    81  53  37 NW9       29.83F
MacArthur/ISP  CLOUDY    80  55  42 NW12      29.81F
Shirley        PTSUNNY   82  61  48 N8        29.82S
Mt Sinai Harb    N/A     81 N/A N/A W6          N/A
Westhampton    PTSUNNY   80  61  52 N7        29.82S
East Hampton   FAIR      80  62  54 NW9       29.80S
Montauk          N/A     80  64  58 W10       29.81S
$$

NYZ052-065-067-232000-
HUDSON VALLEY

CITY           SKY/WX    TMP DP  RH WIND       PRES   REMARKS
White Plains   MOSUNNY   77  53  43 NW12      29.83F
Larchmont Harb   N/A     77 N/A N/A W12         N/A
Croton On Huds   N/A     79 N/A N/A NW13        N/A
Newburgh       MOSUNNY   77  57  50 NW12G17   29.86F
Montgomery     PTSUNNY   79  55  43 NW12      29.84F
Poughkeepsie   MOSUNNY   78  53  41 NW10      29.82F
Albany         MOSUNNY   76  51  41 W14G21    29.83F
$$

NJZ001-105-106-008-010-013-015-019>022-104-232000-
NEW JERSEY

CITY           SKY/WX    TMP DP  RH WIND       PRES   REMARKS
Newark/Liberty PTSUNNY   81  52  36 W15       29.83F
Teterboro      MOSUNNY   80  55  42 NW8       29.82F
Caldwell       CLOUDY    78  55  44 NW7       29.85F
Somerville     MOSUNNY   81  56  42 VRB3      29.84F
Linden         FAIR      80  54  40 NW10      29.84F
Perth Amboy      N/A     77 N/A N/A NW12        N/A
Sussex         MOSUNNY   77  55  46 NW8       29.86F
Andover          N/A     78  53  41 VRB3      29.87F
Trenton        PTSUNNY   80  56  43 W8        29.85F
Millville      PTSUNNY   83  66  56 N5        29.85S
Atlantic City  PTSUNNY   82  66  58 NW8       29.84F
Wrightstown    MOSUNNY   81  57  44 W8        29.83S
Toms River     PTSUNNY   83  64  52 NW10      29.85F
Belmar         CLOUDY    82  58  43 NW10      29.86S
$$

PAZ047>061-062-071-232000-
EASTERN PENNSYLVANIA

CITY           SKY/WX    TMP DP  RH WIND       PRES   REMARKS
Philadelphia   PTSUNNY   83  56  39 N13G20    29.86F
Allentown      MOSUNNY   79  54  41 W8        29.87F
Scranton       MOSUNNY   77  52  41 NW8       29.89F
$$

CTZ002-004>006-009-010-012-RIZ004-006-007-MAZ004-011-015-232000-
SOUTHERN NEW ENGLAND
 IN CT

CITY           SKY/WX    TMP DP  RH WIND       PRES   REMARKS
Bradley INTL   PTSUNNY   79  51  37 NW12G20   29.82S
Hartford       MOSUNNY   80  53  39 N5        29.80F
Danbury        MOSUNNY   78  53  41 NW8       29.85F
Wtrbury/Oxford MOSUNNY   76  53  44 N6        29.85S
Norwalk Harbor   N/A     77 N/A N/A NW12        N/A
Bridgeport     CLOUDY    82  54  37 NW10G16   29.80F
Meriden        MOSUNNY   81  53  37 NW8       29.81F
New Haven      MOSUNNY   81  53  37 NW9       29.81F
Chester        FAIR      79  52  38 NW9       29.82S
Groton         MOSUNNY   82  57  42 W7        29.78S
Wilimantic     MOSUNNY   79  52  38 W10       29.81F

 IN RI

CITY           SKY/WX    TMP DP  RH WIND       PRES   REMARKS
Providence     PTSUNNY   84  56  38 W13       29.78F
Block Island   MOSUNNY   80  67  64 W12       29.80S
Westerly       MOSUNNY   84  65  52 SW6       29.79F
 IN MA

CITY           SKY/WX    TMP DP  RH WIND       PRES   REMARKS
Boston         PTSUNNY   83  52  34 W15G22    29.75F
Worcester      PTSUNNY   76  49  38 W14       29.82S
Westfield      MOSUNNY   79  52  38 NW12      29.81F
Provincetown   MOSUNNY   80  61  52 NW7       29.77S
Nantucket      CLOUDY    76  72  87 W14       29.78F
$$

ANZ330-335-338-340-345-350-353-355-232000-
COASTAL MARINE OBSERVATIONS


STATION/POSITION TIME  SKY/WX   TEMP    WIND        PRES    VSBY  WAVE
                                AIR SEA DIR/SP/G                  HT/PER
                 (UTC)          (F)     (DEG/KT/KT) (MB)    (MI)  (FT/S)
NY HARB ENTRANCE 1750            76 75  310/ 12/ 14 1009.8          3/ 6
GREAT SOUTH BAY  1815            79 79  300/ 10/ 12   N/A
23 SSW MONTAUK P 1750            73 73              1009.7          4/ 7
15 E BARNEGAT LI 1830               77                N/A           3/ 9
HUDSON CANYON    1750            76 77  340/ 10/ 12 1009.3          5/ 7
KINGS POINT      1830            77 74   10/  9/ 11 1009.9
EXECUTION ROCKS  NOT AVBL
WESTERN LI SOUND NOT AVBL
CENTRAL LI SOUND NOT AVBL
EASTERN LI SOUND NOT AVBL
ROBBINS REEF     1824                   300/ 11/ 15 1010.9
$$


>>>>>>>>>>>>>>>>>>>>>>>>>>>> KEY <<<<<<<<<<<<<<<<<<<<<<<<<<<
>                                                          <
>     SKY/WX - Sky Condition/Present Weather               <
>     TMP    - Temperature in Fahrenheit                   <
>     DP     - Dew Point in Fahrenheit                     <
>     RH     - Relative Humidity in Percent                <
>     WIND   - Direction (from) and Speed in MPH           <
>     PRES   - Mean Sea Level Pressure (inches of Hg)      <
>     WCI    - Wind Chill Index                            <
>     VSB    - VISIBILITY IN MILES                         <
>     HX     - HEAT INDEX                                  <
>     TC     - TEMPERATURE IN CELSIUS                      <
>     VRB    - VARIABLE WIND DIRECTION                     <
>                                                          <
>>>>>>>>>>>>>>>>>>>>>>>>>>>> KEY <<<<<<<<<<<<<<<<<<<<<<<<<<<



USA.gov is the U.S. government's official web portal to all federal, state and local government web resources and services.